METEOR 2-7 DEB, 36878

Orbit data source: Space-Track

METEOR 2-7 DEB, 36878 is space debris in LEO originally from a launch on Thu, 14 May 1981 UTC launched from the Plesetsk Missile And Space Complex (PKMTR). Debris objects in space refer to the collection of defunct objects orbiting the Earth. Examples of debris include non-operational satellites, rocket bodies, and fragments generated from explosions, collisions, or faulty payload assembly.

Loading next visibility...
Identifier
36878, 1981-043R
Orbit
LEO
Country
Flag of CISCIS
Related business
Manufacturer
Unknown
Mission
Spacecraft
Bus & Motor
Unknown
Mass
Unknown
Launch date (UTC)
1981-05-14 (44 years ago)
Launch vehicle
Unknown
Launch site
Plesetsk Missile And Space Complex (PKMTR)
Object type
Payload
Rocket body
Debris
Shape & HBR
Unknown shape, 0.1 m
Radar Cross Section
Small (<0.1 m²)

Expand to show TLE details & history
Last TLE update: 15 hours ago

TLE from 15 hours ago
0 METEOR 2-7 DEB
1 36878U 81043R   25295.53333750  .00015108  00000-0  38158-2 0  9992
2 36878  81.2521 215.9218 0024150 136.3036  38.8227 14.50770551636678
Epoch: 2025-10-22T12:48Z
TLE epoch observation values (Epoch: 2025-10-22T12:48:00.360Z)
Latitude
4.55564°
Longitude
172.01599°
Altitude
712.265 km
Speed
7.507 km/s
True Right ascension
02h 20m 53s
True Declination
4° 31' 42"
Sunlit
Object was in full shadow at epoch
Visualization orbit readout
Latitude
Unknown
Longitude
Unknown
Altitude
Unknown
Speed
Unknown
Apparent Right ascension
Unknown
Apparent Declination
Unknown
Sunlit
N/A
Visualization observer readout
Local Sidereal Time
23:05:01
Azimuth
Unknown
Elevation
Unknown
Doppler factor
Unknown
Orbital elements
Apogee altitude
737.395 km
Perigee altitude
703.11 km
Semi-major axis
7,098.389 km
Eccentricity
0.00242
Inclination
81.2521°
RAAN
215.9218°
Arg. of periapsis
136.3036°
True anomaly
38.9966°
Mean anomaly
38.8227°
Eccentric anomaly
38.90961°
Mean motion
3.62914 °/min
Orbital period
99.2 mins
BSTAR
0.0038158
Loading maneuver chart data...
Computing Atmospheric mass density...
Loading historical data...
Loading historical data...
Loading historical data...
Loading historical data...
Loading historical data...
Loading historical data...
Loading historical data...

Documentation

Showing up to 5 results
|